[[{"header":{"parameterUnit":"m.s-1","parameterCategory":1,"la1":30.2991,"la2":30.254,"lo1":-89.0895,"lo2":-89.0444,"dy":0.0017,"dx":0.0017,"nx":28,"ny":28,"refTime":"2025-09-17T03:00:00:Z","depth":0,"parameterNumber":2,"parameterNumberName":"U-component_of_WINDS"},"data":[0,0,0,0,0,0,0,0,0,0,0,0,0,0,0,0,0,0,0,0,0,0,0,0,0,0,0,0,0,0,0,0,0,0,0,0,0,0,0,0,0,0,0,0,0,0,0,0,0,0,0,0,0,0,0,0,0,0,1.5128,1.5129,0,1.5198,1.5198,1.5199,1.5199,1.5198,1.5197,1.5196,1.5264,1.5267,1.5269,0,0,0,0,0,0,0,0,0,0,0,0,0,1.4992,1.4995,1.5128,1.5129,1.513,1.5197,1.5198,1.5199,1.5199,1.5198,1.5197,1.5195,1.5263,1.5267,1.527,0,0,0,0,0,0,0,0,0,0,0,0,0,1.5055,1.4995,1.5128,1.5138,1.5139,1.5197,1.5198,1.52,1.5199,1.5198,1.5196,1.5195,1.5262,1.5266,1.527,1.5322,0,0,1.5282,1.5284,0,0,0,0,0,0,0,0,1.5052,1.506,1.5135,1.5137,1.5139,1.5188,1.5176,1.5241,1.5199,1.5176,1.5196,1.5194,1.524,1.5246,1.5262,1.5325,1.5328,1.5283,1.5285,1.5287,1.5288,0,0,0,0,0,0,0,1.5047,1.5057,1.5155,1.5136,1.5139,1.5138,1.5145,1.5188,1.5215,1.5178,1.5178,1.5187,1.524,1.5258,1.5263,1.5329,1.5283,1.5286,1.5289,1.529,1.5439,1.544,0,0,0,0,0,0,1.5041,1.5054,1.5153,1.5157,1.5091,1.5141,1.515,1.5174,1.5214,1.5219,1.5188,1.5186,1.5251,1.5258,1.5265,1.5328,1.5287,1.5291,1.5293,1.5437,1.5439,1.5441,0,0,0,0,0,0,1.5038,1.505,1.515,1.5106,1.5118,1.5145,1.5172,1.5176,1.5193,1.5222,1.5226,1.52,1.5251,1.526,1.5308,1.5331,1.5292,1.5296,1.5435,1.5438,1.544,1.5455,0,0,0,0,0,0,1.5034,1.5049,1.507,1.5106,1.5121,1.5192,1.5173,1.5178,1.52,1.5199,1.5235,1.5239,1.525,1.5302,1.5312,1.5336,1.5299,1.5433,1.5436,1.5439,1.5452,1.5457,1.5462,0,0,0,0,0,1.503,1.507,1.5071,1.5083,1.5147,1.5194,1.5202,1.5215,1.5202,1.5222,1.5241,1.5238,1.5327,1.5307,1.5318,1.5343,1.5432,1.5436,1.5439,1.545,1.5457,1.5462,0,0,0,0,0,0,1.5035,1.5075,1.5076,1.513,1.5159,1.5194,1.522,1.5221,1.5253,1.525,1.5264,1.5272,1.532,1.5337,1.5314,1.5396,1.5378,1.5384,1.5383,1.5389,1.5393,1.5388,1.5302,0,0,0,0,0,1.5042,1.5078,1.5111,1.5156,1.517,1.5193,1.5213,1.5221,1.5251,1.5262,1.5284,1.5312,1.5347,1.5369,1.5402,1.5456,1.5463,1.5478,1.5483,1.5487,1.5491,1.552,1.5527,1.5452,1.5452,1.5452,0,0,1.5058,1.5085,1.5106,1.5157,1.518,1.5216,1.5203,1.5241,1.5267,1.5268,1.5315,1.5332,1.5364,1.5415,1.5439,1.5431,1.5514,1.5491,1.5494,1.5496,1.5524,1.5531,1.5537,1.5455,1.5454,1.5454,0,0,1.5104,1.5129,1.5168,1.5192,1.5227,1.5242,1.5252,1.5287,1.5299,1.5346,1.5348,1.5379,1.5438,1.5461,1.548,1.5536,1.5535,1.5547,1.557,1.5598,1.5604,1.5609,1.5628,1.5635,1.5551,1.5551,1.5552,0,1.5119,1.5173,1.5188,1.5226,1.5249,1.5253,1.5292,1.5314,1.5358,1.5373,1.5364,1.5438,1.546,1.5516,1.553,1.5546,1.5556,1.5542,1.5602,1.5608,1.5613,1.5631,1.5638,1.5553,1.5552,1.5552,1.5552,0,1.5189,1.5227,1.5254,1.5298,1.5323,1.5362,1.5382,1.5406,1.5412,1.5427,1.5476,1.5503,1.5541,1.5555,1.5561,1.5612,1.5606,1.56,1.5582,1.5621,1.5638,1.5645,1.5554,1.5554,1.5554,1.5553,0,0,1.5238,1.5291,1.53,1.532,1.536,1.5389,1.5428,1.5467,1.5487,1.5518,1.555,1.56,1.5595,1.5617,1.5625,1.565,1.5692,1.564,1.5641,1.5648,1.5749,1.5753,1.5761,1.5692,1.5693,1.5694,1.5746,0,1.5288,1.5358,1.5373,1.5433,1.5468,1.5473,1.5507,1.5534,1.555,1.5581,1.5599,1.5634,1.5624,1.5638,1.5663,1.5681,1.5712,1.5678,1.572,1.5722,1.5711,1.577,1.5774,1.5821,1.5753,1.5754,1.5755,0,1.5355,1.5388,1.5452,1.5488,1.5503,1.5533,1.557,1.56,1.5631,1.5641,1.5667,1.5672,1.5712,1.5694,1.5749,1.5725,1.5744,1.5756,1.5758,1.5761,1.5739,1.5773,1.5837,1.5843,1.5766,1.5765,1.5764,0,1.5384,1.5444,1.549,1.5507,1.555,1.5571,1.559,1.562,1.5643,1.5675,1.5689,1.5726,1.5745,1.5772,1.5788,1.5773,1.5841,1.5824,1.5849,1.5849,1.5862,1.586,1.5928,1.5876,1.5876,1.5876,1.5876,0,1.5437,1.5475,1.5504,1.5532,1.5575,1.5592,1.5634,1.5652,1.5679,1.5711,1.5717,1.5746,1.5765,1.5797,1.5809,1.5852,1.5861,1.5869,1.5872,1.5868,1.5867,1.5879,1.5875,1.5878,1.5877,1.5877,1.5877,0,1.5475,1.5496,1.5546,1.5583,1.5593,1.5624,1.5655,1.5682,1.5699,1.5738,1.5748,1.5774,1.5811,1.583,1.5876,1.5884,1.5933,1.5934,1.5922,1.5923,1.5946,1.5943,1.6023,1.6033,1.5976,1.5977,1.5977,0,1.5506,1.5536,1.5577,1.5599,1.5618,1.5654,1.5677,1.5695,1.5718,1.5757,1.5779,1.5817,1.5849,1.5908,1.593,1.5966,1.5967,1.5992,1.5972,1.5967,1.5966,1.5963,1.5966,1.5995,1.5996,1.5996,1.5997,0,1.556,1.5569,1.5603,1.5641,1.5668,1.5699,1.5728,1.5746,1.5768,1.5795,1.5834,1.5858,1.5906,1.5943,1.5981,1.5999,1.6001,1.6003,1.6011,1.6006,1.5998,1.6001,1.593,1.6001,1.6,1.6,1.6,1.6,1.5595,1.5622,1.5655,1.5692,1.5717,1.5745,1.5772,1.5792,1.5826,1.5866,1.5875,1.5916,1.5947,1.5997,1.6017,1.6049,1.6043,1.6054,1.6057,1.6059,1.6059,1.5994,1.6056,1.6056,1.6056,1.6056,1.6056,0,1.5648,1.567,1.5704,1.5746,1.5775,1.5777,1.581,1.5834,1.587,1.5899,1.593,1.5975,1.6012,1.6037,1.6074,1.6095,1.6097,1.6104,1.6101,1.6105,1.6063,1.6052,1.6101,1.6101,1.6101,1.6101,1.6101,1.6101,1.5679,1.5724,1.5737,1.5794,1.5816,1.5856,1.5875,1.5901,1.5924,1.5974,1.6004,1.6022,1.6049,1.6088,1.6122,1.6128,1.6141,1.6148,1.6154,1.6113,1.6109,1.6104,1.6094,1.6151,1.6151,1.6194,1.6194,1.6194]},{"header":{"parameterUnit":"m.s-1","parameterCategory":1,"la1":30.2991,"la2":30.254,"lo1":-89.0895,"lo2":-89.0444,"dy":0.0017,"dx":0.0017,"nx":28,"ny":28,"refTime":"2025-09-17T03:00:00:Z","depth":0,"parameterNumber":3,"parameterNumberName":"V-component_of_WINDS"},"data":[0,0,0,0,0,0,0,0,0,0,0,0,0,0,0,0,0,0,0,0,0,0,0,0,0,0,0,0,0,0,0,0,0,0,0,0,0,0,0,0,0,0,0,0,0,0,0,0,0,0,0,0,0,0,0,0,0,0,-2.2148,-2.2148,0,-2.219,-2.219,-2.219,-2.2172,-2.2171,-2.217,-2.2169,-2.2209,-2.2211,-2.2213,0,0,0,0,0,0,0,0,0,0,0,0,0,-2.2049,-2.2051,-2.2148,-2.2148,-2.2149,-2.2189,-2.219,-2.2191,-2.2172,-2.2171,-2.217,-2.2168,-2.2209,-2.2211,-2.2214,0,0,0,0,0,0,0,0,0,0,0,0,0,-2.2091,-2.2052,-2.2148,-2.2144,-2.2145,-2.2189,-2.219,-2.2191,-2.2172,-2.2171,-2.2169,-2.2168,-2.2208,-2.2211,-2.2214,-2.2264,0,0,-2.2223,-2.2225,0,0,0,0,0,0,0,0,-2.2089,-2.2095,-2.2144,-2.2145,-2.2145,-2.2174,-2.217,-2.2215,-2.2173,-2.2162,-2.2169,-2.2167,-2.2199,-2.2202,-2.2214,-2.2265,-2.2267,-2.2224,-2.2225,-2.2227,-2.2228,0,0,0,0,0,0,0,-2.2086,-2.2093,-2.2164,-2.2145,-2.2145,-2.214,-2.2144,-2.2179,-2.2188,-2.2163,-2.2161,-2.2167,-2.2199,-2.2211,-2.2214,-2.2268,-2.2223,-2.2226,-2.2228,-2.2229,-2.2361,-2.2362,0,0,0,0,0,0,-2.2084,-2.2091,-2.2163,-2.2165,-2.2113,-2.2143,-2.2148,-2.2166,-2.2188,-2.219,-2.2168,-2.2166,-2.2206,-2.2211,-2.2216,-2.2274,-2.2227,-2.223,-2.2231,-2.2359,-2.2361,-2.2363,0,0,0,0,0,0,-2.2082,-2.209,-2.2161,-2.2128,-2.2136,-2.2146,-2.2167,-2.2168,-2.218,-2.2192,-2.2193,-2.2179,-2.2205,-2.2211,-2.2252,-2.2275,-2.2231,-2.2234,-2.2357,-2.236,-2.2362,-2.2392,0,0,0,0,0,0,-2.2079,-2.209,-2.2109,-2.2128,-2.2138,-2.2197,-2.2169,-2.217,-2.2185,-2.2183,-2.2202,-2.2204,-2.2204,-2.2247,-2.2255,-2.2279,-2.2236,-2.2355,-2.2358,-2.2361,-2.2389,-2.2395,-2.24,0,0,0,0,0,-2.2075,-2.2116,-2.211,-2.2119,-2.2163,-2.2199,-2.2204,-2.2204,-2.2188,-2.2207,-2.2214,-2.2203,-2.2272,-2.2251,-2.226,-2.2285,-2.2354,-2.2358,-2.2361,-2.2386,-2.2394,-2.24,0,0,0,0,0,0,-2.2098,-2.2118,-2.2112,-2.216,-2.2178,-2.2195,-2.222,-2.2213,-2.2235,-2.2231,-2.223,-2.2235,-2.2276,-2.2285,-2.2262,-2.2333,-2.231,-2.2316,-2.2326,-2.2333,-2.2339,-2.2335,-2.2239,0,0,0,0,0,-2.2109,-2.2137,-2.2153,-2.2193,-2.2202,-2.221,-2.2225,-2.2224,-2.2242,-2.2249,-2.2259,-2.2277,-2.2302,-2.2318,-2.2342,-2.239,-2.2393,-2.2412,-2.2417,-2.2422,-2.2426,-2.2451,-2.2459,-2.2375,-2.2375,-2.2375,0,0,-2.2131,-2.2145,-2.2163,-2.2198,-2.2212,-2.2239,-2.2216,-2.2247,-2.2267,-2.2253,-2.2292,-2.23,-2.2319,-2.2363,-2.2383,-2.2371,-2.245,-2.2427,-2.2431,-2.2432,-2.2455,-2.2463,-2.247,-2.2378,-2.2377,-2.2377,0,0,-2.2185,-2.22,-2.2235,-2.2249,-2.227,-2.2274,-2.2283,-2.2301,-2.2306,-2.2345,-2.2335,-2.2359,-2.2403,-2.2416,-2.2429,-2.2488,-2.2478,-2.2496,-2.2526,-2.255,-2.2556,-2.2562,-2.2581,-2.2589,-2.2501,-2.2501,-2.2501,0,-2.221,-2.2252,-2.2253,-2.2285,-2.23,-2.2289,-2.2324,-2.2337,-2.2365,-2.2375,-2.2362,-2.2416,-2.2429,-2.2475,-2.2489,-2.25,-2.2509,-2.2493,-2.2555,-2.2561,-2.2566,-2.2585,-2.2592,-2.2503,-2.2502,-2.2502,-2.2502,0,-2.2281,-2.231,-2.2336,-2.2363,-2.2381,-2.2414,-2.2419,-2.2437,-2.2434,-2.244,-2.2478,-2.2493,-2.2519,-2.253,-2.2528,-2.2576,-2.2568,-2.2555,-2.2531,-2.2576,-2.2593,-2.2601,-2.2505,-2.2505,-2.2504,-2.2504,0,0,-2.235,-2.2377,-2.2386,-2.2398,-2.242,-2.2443,-2.2475,-2.2501,-2.2515,-2.2535,-2.2561,-2.2598,-2.2586,-2.2601,-2.26,-2.2621,-2.2665,-2.2605,-2.2606,-2.2614,-2.2717,-2.2725,-2.2733,-2.2659,-2.2661,-2.2662,-2.2714,0,-2.2404,-2.2461,-2.2462,-2.2514,-2.254,-2.2531,-2.2558,-2.2574,-2.2581,-2.2603,-2.2609,-2.2635,-2.2619,-2.2627,-2.2648,-2.2655,-2.2685,-2.2651,-2.2681,-2.2682,-2.2675,-2.2742,-2.2751,-2.28,-2.2721,-2.2723,-2.2723,0,-2.2476,-2.2497,-2.2551,-2.2569,-2.258,-2.2605,-2.2628,-2.2651,-2.2669,-2.2671,-2.2687,-2.2683,-2.2714,-2.2691,-2.2733,-2.271,-2.2723,-2.2728,-2.273,-2.2731,-2.2704,-2.2744,-2.2816,-2.2823,-2.2734,-2.2734,-2.2733,0,-2.2518,-2.2561,-2.2599,-2.261,-2.2632,-2.2649,-2.2659,-2.2675,-2.269,-2.2711,-2.272,-2.2744,-2.2757,-2.2775,-2.2776,-2.2759,-2.2818,-2.2795,-2.282,-2.282,-2.2832,-2.2831,-2.2905,-2.2843,-2.2843,-2.2843,-2.2842,0,-2.2578,-2.2611,-2.2618,-2.2641,-2.2677,-2.2679,-2.2714,-2.2723,-2.2737,-2.2761,-2.2754,-2.2776,-2.2778,-2.28,-2.2802,-2.2836,-2.2842,-2.2844,-2.2844,-2.2844,-2.2843,-2.2851,-2.2847,-2.2845,-2.2844,-2.2844,-2.2843,0,-2.2632,-2.2638,-2.2678,-2.2696,-2.2701,-2.2727,-2.2741,-2.2762,-2.2768,-2.2798,-2.2805,-2.2813,-2.2839,-2.2843,-2.2874,-2.2874,-2.2914,-2.2912,-2.2909,-2.2908,-2.2932,-2.2929,-2.3012,-2.3022,-2.2955,-2.2955,-2.2956,0,-2.2669,-2.2694,-2.2714,-2.273,-2.2741,-2.2766,-2.2781,-2.2784,-2.28,-2.2822,-2.284,-2.2865,-2.2886,-2.2927,-2.2935,-2.2958,-2.2955,-2.2982,-2.2958,-2.2957,-2.2953,-2.2951,-2.2952,-2.2987,-2.2987,-2.2988,-2.2988,0,-2.2733,-2.2735,-2.2758,-2.2782,-2.2801,-2.282,-2.2838,-2.2851,-2.2855,-2.2873,-2.29,-2.2916,-2.2947,-2.2971,-2.2994,-2.3003,-2.2996,-2.2996,-2.3003,-2.3002,-2.2999,-2.2999,-2.292,-2.2994,-2.2993,-2.2993,-2.2993,-2.2992,-2.2778,-2.28,-2.2817,-2.2843,-2.2857,-2.2873,-2.2894,-2.2902,-2.2925,-2.295,-2.295,-2.2979,-2.2995,-2.3025,-2.3035,-2.3057,-2.3048,-2.3058,-2.306,-2.3062,-2.3064,-2.2997,-2.3061,-2.3061,-2.3061,-2.3061,-2.3061,0,-2.2841,-2.2852,-2.2876,-2.2901,-2.2921,-2.2913,-2.2933,-2.2949,-2.2975,-2.2991,-2.3011,-2.3041,-2.3065,-2.3075,-2.3098,-2.3114,-2.3111,-2.3119,-2.3117,-2.3119,-2.3071,-2.3063,-2.3121,-2.3121,-2.3121,-2.3121,-2.3121,-2.3121,-2.2876,-2.2911,-2.2915,-2.2957,-2.2967,-2.2996,-2.3007,-2.3022,-2.3034,-2.3068,-2.3088,-2.3095,-2.3108,-2.3132,-2.3153,-2.3156,-2.3164,-2.3173,-2.3174,-2.3129,-2.3123,-2.3117,-2.3108,-2.3176,-2.3176,-2.322,-2.322,-2.322]}]]